Time,TemperatureF,DewpointF,PressureIn,WindDirection,WindDirectionDegrees,WindSpeedMPH,WindSpeedGustMPH,Humidity,HourlyPrecipIn,Conditions,Clouds,dailyrainin,SolarRadiationWatts/m^2,SoftwareType,DateUTC
2013-06-27 00:03:00,77.9,63.3,29.81,North,360,0.0,0.0,61,0.00,,,0.00,0,HR-IXPWINDi_r2_v1.2.,2013-06-27 05:03:00,
2013-06-27 00:08:00,77.1,63.9,29.81,North,360,0.0,1.0,64,0.00,,,0.00,0,HR-IXPWINDi_r2_v1.2.,2013-06-27 05:08:00,
2013-06-27 00:14:00,76.8,64.5,29.80,North,360,1.0,2.0,66,0.00,,,0.00,0,HR-IXPWINDi_r2_v1.2.,2013-06-27 05:14:00,
2013-06-27 00:19:00,77.1,65.2,29.81,North,360,0.0,2.0,67,0.00,,,0.00,0,HR-IXPWINDi_r2_v1.2.,2013-06-27 05:19:00,
2013-06-27 00:24:00,76.6,65.2,29.81,North,360,0.0,1.0,68,0.00,,,0.00,0,HR-IXPWINDi_r2_v1.2.,2013-06-27 05:24:00,
2013-06-27 00:29:00,75.9,65.4,29.81,North,360,0.0,1.0,70,0.00,,,0.00,0,HR-IXPWINDi_r2_v1.2.,2013-06-27 05:29:00,
2013-06-27 00:34:00,76.2,65.6,29.80,North,360,0.0,3.0,70,0.00,,,0.00,0,HR-IXPWINDi_r2_v1.2.,2013-06-27 05:34:00,
2013-06-27 00:40:00,76.5,65.9,29.80,NNE,17,1.0,3.0,70,0.00,,,0.00,0,HR-IXPWINDi_r2_v1.2.,2013-06-27 05:40:00,
2013-06-27 00:45:00,76.7,64.4,29.80,North,360,1.0,2.0,66,0.00,,,0.00,0,HR-IXPWINDi_r2_v1.2.,2013-06-27 05:45:00,
2013-06-27 00:50:00,77.0,63.8,29.81,North,360,1.0,2.0,64,0.00,,,0.00,0,HR-IXPWINDi_r2_v1.2.,2013-06-27 05:50:00,
2013-06-27 00:55:00,77.2,63.6,29.80,North,360,0.0,2.0,63,0.00,,,0.00,0,HR-IXPWINDi_r2_v1.2.,2013-06-27 05:55:00,
2013-06-27 01:01:00,77.3,63.2,29.80,North,360,0.0,2.0,62,0.00,,,0.00,0,HR-IXPWINDi_r2_v1.2.,2013-06-27 06:01:00,
2013-06-27 01:06:00,77.3,62.8,29.80,North,360,0.0,2.0,61,0.00,,,0.00,0,HR-IXPWINDi_r2_v1.2.,2013-06-27 06:06:00,
2013-06-27 01:11:00,77.2,62.7,29.80,North,360,0.0,1.0,61,0.00,,,0.00,0,HR-IXPWINDi_r2_v1.2.,2013-06-27 06:11:00,
2013-06-27 01:16:00,77.0,62.9,29.79,North,360,0.0,1.0,62,0.00,,,0.00,0,HR-IXPWINDi_r2_v1.2.,2013-06-27 06:16:00,
2013-06-27 01:22:00,76.5,63.4,29.79,North,360,0.0,1.0,64,0.00,,,0.00,0,HR-IXPWINDi_r2_v1.2.,2013-06-27 06:22:00,
2013-06-27 01:27:00,76.1,63.9,29.80,North,360,0.0,1.0,66,0.00,,,0.00,0,HR-IXPWINDi_r2_v1.2.,2013-06-27 06:27:00,
2013-06-27 01:32:00,75.6,63.8,29.80,North,360,0.0,1.0,67,0.00,,,0.00,0,HR-IXPWINDi_r2_v1.2.,2013-06-27 06:32:00,
2013-06-27 01:37:00,75.2,62.6,29.80,North,360,0.0,1.0,65,0.00,,,0.00,0,HR-IXPWINDi_r2_v1.2.,2013-06-27 06:37:00,
2013-06-27 01:43:00,75.5,62.0,29.80,NNE,18,0.0,1.0,63,0.00,,,0.00,0,HR-IXPWINDi_r2_v1.2.,2013-06-27 06:43:00,
2013-06-27 01:48:00,75.8,62.3,29.80,NNE,18,0.0,1.0,63,0.00,,,0.00,0,HR-IXPWINDi_r2_v1.2.,2013-06-27 06:48:00,
2013-06-27 01:53:00,75.5,62.4,29.80,North,360,0.0,2.0,64,0.00,,,0.00,0,HR-IXPWINDi_r2_v1.2.,2013-06-27 06:53:00,
2013-06-27 01:58:00,75.0,62.8,29.80,North,360,0.0,4.0,66,0.00,,,0.00,0,HR-IXPWINDi_r2_v1.2.,2013-06-27 06:58:00,
2013-06-27 02:03:00,74.6,62.4,29.81,North,360,3.0,6.0,66,0.00,,,0.00,0,HR-IXPWINDi_r2_v1.2.,2013-06-27 07:03:00,
2013-06-27 02:08:00,74.2,63.3,29.80,North,360,0.0,6.0,69,0.00,,,0.00,0,HR-IXPWINDi_r2_v1.2.,2013-06-27 07:08:00,
2013-06-27 02:14:00,73.6,63.6,29.80,North,360,2.0,6.0,71,0.00,,,0.00,0,HR-IXPWINDi_r2_v1.2.,2013-06-27 07:14:00,
2013-06-27 02:19:00,73.4,64.5,29.80,SSW,213,1.0,4.0,74,0.00,,,0.00,0,HR-IXPWINDi_r2_v1.2.,2013-06-27 07:19:00,
2013-06-27 02:24:00,73.2,65.1,29.81,SSW,212,0.0,4.0,76,0.00,,,0.00,0,HR-IXPWINDi_r2_v1.2.,2013-06-27 07:24:00,
2013-06-27 02:29:00,73.1,65.8,29.81,SSW,213,0.0,3.0,78,0.00,,,0.00,0,HR-IXPWINDi_r2_v1.2.,2013-06-27 07:29:00,
2013-06-27 02:34:00,72.9,65.9,29.80,SSW,212,0.0,1.0,79,0.00,,,0.00,0,HR-IXPWINDi_r2_v1.2.,2013-06-27 07:34:00,
2013-06-27 02:39:00,73.1,66.5,29.81,SSW,212,0.0,1.0,80,0.00,,,0.00,0,HR-IXPWINDi_r2_v1.2.,2013-06-27 07:39:00,
2013-06-27 02:45:00,72.9,66.7,29.81,SSW,213,0.0,1.0,81,0.00,,,0.00,0,HR-IXPWINDi_r2_v1.2.,2013-06-27 07:45:00,
2013-06-27 02:50:00,73.0,66.8,29.81,SSW,213,0.0,1.0,81,0.00,,,0.00,0,HR-IXPWINDi_r2_v1.2.,2013-06-27 07:50:00,
2013-06-27 02:55:00,73.0,66.8,29.81,SSW,213,0.0,1.0,81,0.00,,,0.00,0,HR-IXPWINDi_r2_v1.2.,2013-06-27 07:55:00,
2013-06-27 03:00:00,72.6,65.3,29.81,SSW,212,1.0,1.0,78,0.00,,,0.00,0,HR-IXPWINDi_r2_v1.2.,2013-06-27 08:00:00,
2013-06-27 03:06:00,72.1,64.8,29.81,SSW,212,0.0,1.0,78,0.00,,,0.00,0,HR-IXPWINDi_r2_v1.2.,2013-06-27 08:06:00,
2013-06-27 03:11:00,71.8,64.9,29.81,SSW,212,0.0,1.0,79,0.00,,,0.00,0,HR-IXPWINDi_r2_v1.2.,2013-06-27 08:11:00,
2013-06-27 03:16:00,71.7,64.8,29.81,SSW,213,0.0,0.0,79,0.00,,,0.00,0,HR-IXPWINDi_r2_v1.2.,2013-06-27 08:16:00,
2013-06-27 03:21:00,72.1,65.2,29.81,SSW,213,0.0,0.0,79,0.00,,,0.00,0,HR-IXPWINDi_r2_v1.2.,2013-06-27 08:21:00,
2013-06-27 03:27:00,72.1,64.4,29.81,SSW,213,0.0,1.0,77,0.00,,,0.00,0,HR-IXPWINDi_r2_v1.2.,2013-06-27 08:27:00,
2013-06-27 03:32:00,71.8,65.2,29.81,SSW,213,0.0,1.0,80,0.00,,,0.00,0,HR-IXPWINDi_r2_v1.2.,2013-06-27 08:32:00,
2013-06-27 03:37:00,71.6,65.4,29.81,North,360,3.0,3.0,81,0.00,,,0.00,0,HR-IXPWINDi_r2_v1.2.,2013-06-27 08:37:00,
2013-06-27 03:42:00,71.7,65.5,29.81,SSW,212,2.0,3.0,81,0.00,,,0.00,0,HR-IXPWINDi_r2_v1.2.,2013-06-27 08:42:00,
2013-06-27 03:48:00,72.2,65.6,29.81,SSW,212,1.0,4.0,80,0.00,,,0.00,0,HR-IXPWINDi_r2_v1.2.,2013-06-27 08:48:00,
2013-06-27 03:53:00,72.5,64.4,29.81,SSW,212,2.0,4.0,76,0.00,,,0.00,0,HR-IXPWINDi_r2_v1.2.,2013-06-27 08:53:00,
2013-06-27 03:59:00,72.7,64.6,29.81,SSW,212,0.0,5.0,76,0.00,,,0.00,0,HR-IXPWINDi_r2_v1.2.,2013-06-27 08:59:00,
2013-06-27 04:04:00,72.6,64.9,29.81,North,360,3.0,5.0,77,0.00,,,0.00,0,HR-IXPWINDi_r2_v1.2.,2013-06-27 09:04:00,
2013-06-27 04:09:00,72.5,64.8,29.82,North,360,2.0,4.0,77,0.00,,,0.00,0,HR-IXPWINDi_r2_v1.2.,2013-06-27 09:09:00,
2013-06-27 04:14:00,72.4,64.7,29.82,North,360,0.0,4.0,77,0.00,,,0.00,0,HR-IXPWINDi_r2_v1.2.,2013-06-27 09:14:00,
2013-06-27 04:19:00,72.2,64.5,29.82,North,360,0.0,5.0,77,0.00,,,0.00,0,HR-IXPWINDi_r2_v1.2.,2013-06-27 09:19:00,
2013-06-27 04:24:00,72.1,64.4,29.82,North,360,2.0,5.0,77,0.00,,,0.00,0,HR-IXPWINDi_r2_v1.2.,2013-06-27 09:24:00,
2013-06-27 04:30:00,72.1,64.4,29.82,SSW,212,0.0,4.0,77,0.00,,,0.00,0,HR-IXPWINDi_r2_v1.2.,2013-06-27 09:30:00,
2013-06-27 04:35:00,72.1,64.4,29.82,SSW,212,3.0,3.0,77,0.00,,,0.00,0,HR-IXPWINDi_r2_v1.2.,2013-06-27 09:35:00,
2013-06-27 04:40:00,72.2,64.2,29.82,SSW,212,0.0,3.0,76,0.00,,,0.00,0,HR-IXPWINDi_r2_v1.2.,2013-06-27 09:40:00,
2013-06-27 04:45:00,72.4,64.0,29.82,SSW,213,1.0,4.0,75,0.00,,,0.00,0,HR-IXPWINDi_r2_v1.2.,2013-06-27 09:45:00,
2013-06-27 04:50:00,72.3,63.5,29.82,SSW,212,0.0,4.0,74,0.00,,,0.00,0,HR-IXPWINDi_r2_v1.2.,2013-06-27 09:50:00,
2013-06-27 04:55:00,72.1,64.1,29.82,North,360,2.0,3.0,76,0.00,,,0.00,0,HR-IXPWINDi_r2_v1.2.,2013-06-27 09:55:00,
2013-06-27 05:01:00,71.9,63.9,29.82,North,360,1.0,3.0,76,0.00,,,0.00,0,HR-IXPWINDi_r2_v1.2.,2013-06-27 10:01:00,
2013-06-27 05:06:00,71.9,63.5,29.82,North,360,0.0,4.0,75,0.00,,,0.00,0,HR-IXPWINDi_r2_v1.2.,2013-06-27 10:06:00,
2013-06-27 05:11:00,71.7,63.7,29.82,North,360,2.0,4.0,76,0.00,,,0.00,0,HR-IXPWINDi_r2_v1.2.,2013-06-27 10:11:00,
2013-06-27 05:16:00,71.3,63.3,29.82,North,360,4.0,6.0,76,0.00,,,0.00,0,HR-IXPWINDi_r2_v1.2.,2013-06-27 10:16:00,
2013-06-27 05:21:00,71.2,63.2,29.81,North,360,1.0,6.0,76,0.00,,,0.00,0,HR-IXPWINDi_r2_v1.2.,2013-06-27 10:21:00,
2013-06-27 05:26:00,71.3,63.3,29.82,North,360,0.0,5.0,76,0.00,,,0.00,0,HR-IXPWINDi_r2_v1.2.,2013-06-27 10:26:00,
2013-06-27 05:32:00,71.3,63.3,29.82,North,360,0.0,3.0,76,0.00,,,0.00,0,HR-IXPWINDi_r2_v1.2.,2013-06-27 10:32:00,
2013-06-27 05:37:00,71.1,63.1,29.82,North,360,0.0,1.0,76,0.00,,,0.00,0,HR-IXPWINDi_r2_v1.2.,2013-06-27 10:37:00,
2013-06-27 05:42:00,71.1,63.1,29.83,North,360,2.0,2.0,76,0.00,,,0.00,0,HR-IXPWINDi_r2_v1.2.,2013-06-27 10:42:00,
2013-06-27 05:47:00,71.3,63.3,29.83,North,360,1.0,3.0,76,0.00,,,0.00,0,HR-IXPWINDi_r2_v1.2.,2013-06-27 10:47:00,
2013-06-27 05:52:00,71.4,63.4,29.82,North,360,1.0,3.0,76,0.00,,,0.00,0,HR-IXPWINDi_r2_v1.2.,2013-06-27 10:52:00,
2013-06-27 05:58:00,71.7,63.3,29.82,North,360,0.0,3.0,75,0.00,,,0.00,0,HR-IXPWINDi_r2_v1.2.,2013-06-27 10:58:00,
2013-06-27 06:03:00,71.7,63.3,29.83,North,360,0.0,2.0,75,0.00,,,0.00,5,HR-IXPWINDi_r2_v1.2.,2013-06-27 11:03:00,
2013-06-27 06:08:00,72.1,63.3,29.83,North,360,0.0,2.0,74,0.00,,,0.00,7,HR-IXPWINDi_r2_v1.2.,2013-06-27 11:08:00,
2013-06-27 06:13:00,72.2,63.4,29.83,North,360,1.0,2.0,74,0.00,,,0.00,9,HR-IXPWINDi_r2_v1.2.,2013-06-27 11:13:00,
2013-06-27 06:19:00,71.7,64.0,29.83,North,360,0.0,2.0,77,0.00,,,0.00,11,HR-IXPWINDi_r2_v1.2.,2013-06-27 11:19:00,
2013-06-27 06:23:00,71.0,64.1,29.83,North,360,1.0,3.0,79,0.00,,,0.00,14,HR-IXPWINDi_r2_v1.2.,2013-06-27 11:23:00,
2013-06-27 06:29:00,70.3,64.8,29.83,NE,47,2.0,4.0,83,0.00,,,0.00,21,HR-IXPWINDi_r2_v1.2.,2013-06-27 11:29:00,
2013-06-27 06:34:00,70.0,64.5,29.84,North,360,2.0,4.0,83,0.00,,,0.00,44,HR-IXPWINDi_r2_v1.2.,2013-06-27 11:34:00,
2013-06-27 06:39:00,70.4,64.9,29.84,North,360,2.0,4.0,83,0.00,,,0.00,58,HR-IXPWINDi_r2_v1.2.,2013-06-27 11:39:00,
2013-06-27 06:44:00,70.8,65.3,29.84,North,360,3.0,4.0,83,0.00,,,0.00,67,HR-IXPWINDi_r2_v1.2.,2013-06-27 11:44:00,
2013-06-27 06:50:00,71.1,65.3,29.84,North,360,4.0,4.0,82,0.00,,,0.00,54,HR-IXPWINDi_r2_v1.2.,2013-06-27 11:50:00,
2013-06-27 06:55:00,71.2,65.7,29.84,North,360,4.0,7.0,83,0.00,,,0.00,54,HR-IXPWINDi_r2_v1.2.,2013-06-27 11:55:00,
2013-06-27 07:00:00,71.4,65.9,29.85,North,360,2.0,7.0,83,0.00,,,0.00,42,HR-IXPWINDi_r2_v1.2.,2013-06-27 12:00:00,
2013-06-27 07:05:00,71.6,65.8,29.86,North,360,4.0,7.0,82,0.00,,,0.00,19,HR-IXPWINDi_r2_v1.2.,2013-06-27 12:05:00,
2013-06-27 07:11:00,72.4,65.5,29.86,North,360,2.0,7.0,79,0.00,,,0.00,14,HR-IXPWINDi_r2_v1.2.,2013-06-27 12:11:00,
2013-06-27 07:16:00,73.1,65.4,29.86,North,360,2.0,7.0,77,0.00,,,0.00,18,HR-IXPWINDi_r2_v1.2.,2013-06-27 12:16:00,
2013-06-27 07:21:00,73.6,65.5,29.86,North,360,1.0,5.0,76,0.00,,,0.00,19,HR-IXPWINDi_r2_v1.2.,2013-06-27 12:21:00,
2013-06-27 07:26:00,73.5,65.4,29.86,North,360,1.0,4.0,76,0.00,,,0.00,26,HR-IXPWINDi_r2_v1.2.,2013-06-27 12:26:00,
2013-06-27 07:31:00,73.5,65.0,29.85,North,360,3.0,3.0,75,0.00,,,0.00,40,HR-IXPWINDi_r2_v1.2.,2013-06-27 12:31:00,
2013-06-27 07:37:00,73.8,64.9,29.85,North,360,3.0,5.0,74,0.00,,,0.00,53,HR-IXPWINDi_r2_v1.2.,2013-06-27 12:37:00,
2013-06-27 07:42:00,73.9,65.4,29.84,North,360,2.0,5.0,75,0.00,,,0.00,79,HR-IXPWINDi_r2_v1.2.,2013-06-27 12:42:00,
2013-06-27 07:47:00,74.1,65.2,29.83,North,360,3.0,5.0,74,0.00,,,0.00,60,HR-IXPWINDi_r2_v1.2.,2013-06-27 12:47:00,
2013-06-27 07:52:00,74.5,65.2,29.83,North,360,4.0,6.0,73,0.00,,,0.00,47,HR-IXPWINDi_r2_v1.2.,2013-06-27 12:52:00,
2013-06-27 07:57:00,75.2,64.7,29.82,North,360,3.0,6.0,70,0.00,,,0.00,40,HR-IXPWINDi_r2_v1.2.,2013-06-27 12:57:00,
2013-06-27 08:02:00,75.3,65.6,29.82,North,360,0.0,6.0,72,0.00,,,0.00,35,HR-IXPWINDi_r2_v1.2.,2013-06-27 13:02:00,
2013-06-27 08:08:00,74.7,66.2,29.82,North,360,0.0,4.0,75,0.00,,,0.00,40,HR-IXPWINDi_r2_v1.2.,2013-06-27 13:08:00,
2013-06-27 08:13:00,74.0,65.5,29.82,North,360,1.0,4.0,75,0.00,,,0.00,33,HR-IXPWINDi_r2_v1.2.,2013-06-27 13:13:00,
2013-06-27 08:18:00,74.2,65.3,29.83,North,360,4.0,7.0,74,0.00,,,0.00,32,HR-IXPWINDi_r2_v1.2.,2013-06-27 13:18:00,
2013-06-27 08:23:00,74.1,66.0,29.85,North,360,5.0,10.0,76,0.00,,,0.00,35,HR-IXPWINDi_r2_v1.2.,2013-06-27 13:23:00,
2013-06-27 08:28:00,74.0,65.9,29.87,North,360,5.0,10.0,76,0.00,,,0.00,51,HR-IXPWINDi_r2_v1.2.,2013-06-27 13:28:00,
2013-06-27 08:33:00,73.9,66.2,29.87,North,360,3.0,10.0,77,0.00,,,0.00,62,HR-IXPWINDi_r2_v1.2.,2013-06-27 13:33:00,
2013-06-27 08:38:00,73.8,66.1,29.88,North,360,0.0,10.0,77,0.00,,,0.00,74,HR-IXPWINDi_r2_v1.2.,2013-06-27 13:38:00,
2013-06-27 08:44:00,74.0,66.3,29.89,North,360,3.0,6.0,77,0.00,,,0.00,63,HR-IXPWINDi_r2_v1.2.,2013-06-27 13:44:00,
2013-06-27 08:49:00,73.9,66.5,29.88,North,360,0.0,5.0,78,0.00,,,0.00,47,HR-IXPWINDi_r2_v1.2.,2013-06-27 13:49:00,
2013-06-27 08:54:00,74.0,65.9,29.87,North,360,2.0,5.0,76,0.00,,,0.00,69,HR-IXPWINDi_r2_v1.2.,2013-06-27 13:54:00,
2013-06-27 08:59:00,74.3,66.9,29.87,WSW,238,0.0,4.0,78,0.00,,,0.00,102,HR-IXPWINDi_r2_v1.2.,2013-06-27 13:59:00,
2013-06-27 09:04:00,74.2,66.8,29.87,WSW,238,0.0,4.0,78,0.00,,,0.00,107,HR-IXPWINDi_r2_v1.2.,2013-06-27 14:04:00,
2013-06-27 09:09:00,74.2,67.6,29.87,North,360,2.0,2.0,80,0.00,,,0.00,105,HR-IXPWINDi_r2_v1.2.,2013-06-27 14:09:00,
2013-06-27 09:15:00,74.2,66.8,29.86,North,360,2.0,3.0,78,0.00,,,0.00,120,HR-IXPWINDi_r2_v1.2.,2013-06-27 14:15:00,
2013-06-27 09:20:00,74.3,66.9,29.86,North,360,1.0,6.0,78,0.00,,,0.00,127,HR-IXPWINDi_r2_v1.2.,2013-06-27 14:20:00,
2013-06-27 09:25:00,74.2,66.8,29.86,North,360,2.0,6.0,78,0.00,,,0.00,81,HR-IXPWINDi_r2_v1.2.,2013-06-27 14:25:00,
2013-06-27 09:30:00,74.5,66.8,29.88,North,360,4.0,7.0,77,0.00,,,0.00,44,HR-IXPWINDi_r2_v1.2.,2013-06-27 14:30:00,
2013-06-27 09:35:00,74.3,66.6,29.89,North,360,4.0,7.0,77,0.00,,,0.00,33,HR-IXPWINDi_r2_v1.2.,2013-06-27 14:35:00,
2013-06-27 09:41:00,74.1,66.4,29.90,North,360,1.0,7.0,77,0.00,,,0.00,30,HR-IXPWINDi_r2_v1.2.,2013-06-27 14:41:00,
2013-06-27 09:46:00,74.2,66.1,29.91,North,360,1.0,7.0,76,0.00,,,0.00,19,HR-IXPWINDi_r2_v1.2.,2013-06-27 14:46:00,
2013-06-27 09:51:00,74.4,65.9,29.91,North,360,4.0,8.0,75,0.00,,,0.00,25,HR-IXPWINDi_r2_v1.2.,2013-06-27 14:51:00,
2013-06-27 09:56:00,74.8,65.5,29.91,North,360,4.0,9.0,73,0.00,,,0.00,32,HR-IXPWINDi_r2_v1.2.,2013-06-27 14:56:00,
2013-06-27 10:01:00,74.8,65.9,29.92,North,360,4.0,9.0,74,0.00,,,0.00,30,HR-IXPWINDi_r2_v1.2.,2013-06-27 15:01:00,
2013-06-27 10:06:00,74.6,65.7,29.93,North,360,4.0,6.0,74,0.00,,,0.00,28,HR-IXPWINDi_r2_v1.2.,2013-06-27 15:06:00,
2013-06-27 10:12:00,74.4,65.5,29.92,North,360,0.0,6.0,74,0.00,,,0.00,25,HR-IXPWINDi_r2_v1.2.,2013-06-27 15:12:00,
2013-06-27 10:17:00,74.3,65.4,29.92,North,360,0.0,5.0,74,0.00,,,0.00,26,HR-IXPWINDi_r2_v1.2.,2013-06-27 15:17:00,
2013-06-27 10:22:00,74.2,65.7,29.91,NNW,348,0.0,3.0,75,0.00,,,0.01,28,HR-IXPWINDi_r2_v1.2.,2013-06-27 15:22:00,
2013-06-27 10:27:00,73.7,66.0,29.90,NNW,348,0.0,3.0,77,0.00,,,0.01,30,HR-IXPWINDi_r2_v1.2.,2013-06-27 15:27:00,
2013-06-27 10:33:00,73.3,66.0,29.90,NNW,348,0.0,3.0,78,0.07,,,0.02,28,HR-IXPWINDi_r2_v1.2.,2013-06-27 15:33:00,
2013-06-27 10:38:00,73.1,66.5,29.89,North,360,1.0,2.0,80,0.07,,,0.02,28,HR-IXPWINDi_r2_v1.2.,2013-06-27 15:38:00,
2013-06-27 10:43:00,72.6,66.0,29.88,North,360,2.0,5.0,80,0.06,,,0.03,39,HR-IXPWINDi_r2_v1.2.,2013-06-27 15:43:00,
2013-06-27 10:48:00,72.3,65.7,29.87,North,360,3.0,5.0,80,0.08,,,0.04,35,HR-IXPWINDi_r2_v1.2.,2013-06-27 15:48:00,
2013-06-27 10:53:00,72.0,66.1,29.86,North,360,4.0,7.0,82,0.08,,,0.04,33,HR-IXPWINDi_r2_v1.2.,2013-06-27 15:53:00,
2013-06-27 10:59:00,71.6,65.8,29.85,North,360,7.0,8.0,82,0.09,,,0.05,37,HR-IXPWINDi_r2_v1.2.,2013-06-27 15:59:00,
2013-06-27 11:04:00,71.6,65.8,29.85,North,360,4.0,8.0,82,0.06,,,0.05,39,HR-IXPWINDi_r2_v1.2.,2013-06-27 16:04:00,
2013-06-27 11:09:00,71.6,65.8,29.87,North,360,3.0,8.0,82,0.04,,,0.05,40,HR-IXPWINDi_r2_v1.2.,2013-06-27 16:09:00,
2013-06-27 11:14:00,71.5,66.0,29.89,North,360,3.0,7.0,83,0.00,,,0.05,30,HR-IXPWINDi_r2_v1.2.,2013-06-27 16:14:00,
2013-06-27 11:19:00,71.5,66.3,29.90,North,360,2.0,7.0,84,0.00,,,0.06,28,HR-IXPWINDi_r2_v1.2.,2013-06-27 16:19:00,
2013-06-27 11:24:00,71.7,66.9,29.91,North,360,7.0,8.0,85,0.00,,,0.06,30,HR-IXPWINDi_r2_v1.2.,2013-06-27 16:24:00,
2013-06-27 11:29:00,71.3,65.8,29.91,North,360,9.0,10.0,83,0.00,,,0.06,23,HR-IXPWINDi_r2_v1.2.,2013-06-27 16:29:00,
2013-06-27 11:34:00,71.0,65.5,29.91,North,360,4.0,10.0,83,0.00,,,0.06,16,HR-IXPWINDi_r2_v1.2.,2013-06-27 16:34:00,
2013-06-27 11:39:00,70.8,65.3,29.89,North,360,2.0,10.0,83,0.00,,,0.06,12,HR-IXPWINDi_r2_v1.2.,2013-06-27 16:39:00,
2013-06-27 11:45:00,70.9,65.8,29.88,North,360,8.0,9.0,84,0.00,,,0.06,11,HR-IXPWINDi_r2_v1.2.,2013-06-27 16:45:00,
2013-06-27 11:50:00,-999.0,99.9,29.88,ENE,57,1.0,9.0,-999,0.00,,,0.07,11,HR-IXPWINDi_r2_v1.2.,2013-06-27 16:50:00,
2013-06-27 11:55:00,70.6,66.1,29.88,North,360,4.0,9.0,86,0.08,,,0.08,14,HR-IXPWINDi_r2_v1.2.,2013-06-27 16:55:00,
2013-06-27 12:00:00,70.8,66.7,29.90,North,360,0.0,9.0,87,0.08,,,0.08,25,HR-IXPWINDi_r2_v1.2.,2013-06-27 17:00:00,
2013-06-27 12:06:00,70.6,66.5,29.89,North,360,3.0,7.0,87,0.05,,,0.08,44,HR-IXPWINDi_r2_v1.2.,2013-06-27 17:06:00,
2013-06-27 12:11:00,70.9,66.8,29.88,North,360,3.0,8.0,87,0.04,,,0.08,83,HR-IXPWINDi_r2_v1.2.,2013-06-27 17:11:00,
2013-06-27 12:16:00,71.5,67.0,29.90,North,360,5.0,8.0,86,0.00,,,0.08,70,HR-IXPWINDi_r2_v1.2.,2013-06-27 17:16:00,
2013-06-27 12:22:00,71.7,66.9,29.90,North,360,3.0,8.0,85,0.00,,,0.08,95,HR-IXPWINDi_r2_v1.2.,2013-06-27 17:22:00,
2013-06-27 12:27:00,72.3,67.5,29.90,North,360,3.0,8.0,85,0.00,,,0.08,253,HR-IXPWINDi_r2_v1.2.,2013-06-27 17:27:00,
2013-06-27 12:32:00,72.8,67.6,29.90,North,360,2.0,6.0,84,0.00,,,0.08,220,HR-IXPWINDi_r2_v1.2.,2013-06-27 17:32:00,
2013-06-27 12:37:00,73.3,68.1,29.90,North,360,0.0,5.0,84,0.00,,,0.08,281,HR-IXPWINDi_r2_v1.2.,2013-06-27 17:37:00,
2013-06-27 12:42:00,73.7,68.5,29.90,North,360,3.0,5.0,84,0.00,,,0.08,390,HR-IXPWINDi_r2_v1.2.,2013-06-27 17:42:00,
2013-06-27 12:47:00,74.7,68.8,29.91,North,355,2.0,6.0,82,0.00,,,0.08,183,HR-IXPWINDi_r2_v1.2.,2013-06-27 17:47:00,
2013-06-27 12:52:00,74.9,67.9,29.92,North,360,5.0,9.0,79,0.00,,,0.08,90,HR-IXPWINDi_r2_v1.2.,2013-06-27 17:52:00,
2013-06-27 12:58:00,74.4,67.8,29.92,North,360,8.0,9.0,80,0.00,,,0.08,95,HR-IXPWINDi_r2_v1.2.,2013-06-27 17:58:00,
2013-06-27 13:03:00,74.3,67.7,29.91,North,360,2.0,10.0,80,0.00,,,0.08,132,HR-IXPWINDi_r2_v1.2.,2013-06-27 18:03:00,
2013-06-27 13:08:00,74.1,67.5,29.91,North,360,4.0,10.0,80,0.00,,,0.08,156,HR-IXPWINDi_r2_v1.2.,2013-06-27 18:08:00,
2013-06-27 13:13:00,74.4,67.8,29.90,North,360,4.0,6.0,80,0.00,,,0.08,404,HR-IXPWINDi_r2_v1.2.,2013-06-27 18:13:00,
2013-06-27 13:18:00,75.0,68.4,29.90,North,360,7.0,9.0,80,0.00,,,0.08,376,HR-IXPWINDi_r2_v1.2.,2013-06-27 18:18:00,
2013-06-27 13:23:00,75.3,68.3,29.91,North,360,3.0,9.0,79,0.00,,,0.08,306,HR-IXPWINDi_r2_v1.2.,2013-06-27 18:23:00,
2013-06-27 13:28:00,75.0,68.0,29.91,North,360,5.0,8.0,79,0.00,,,0.08,165,HR-IXPWINDi_r2_v1.2.,2013-06-27 18:28:00,
2013-06-27 13:34:00,74.2,67.6,29.92,North,360,3.0,8.0,80,0.00,,,0.08,67,HR-IXPWINDi_r2_v1.2.,2013-06-27 18:34:00,
2013-06-27 13:39:00,73.9,67.6,29.90,North,360,3.0,8.0,81,0.00,,,0.08,88,HR-IXPWINDi_r2_v1.2.,2013-06-27 18:39:00,
2013-06-27 13:44:00,73.5,67.6,29.90,North,360,3.0,6.0,82,0.00,,,0.08,113,HR-IXPWINDi_r2_v1.2.,2013-06-27 18:44:00,
2013-06-27 13:49:00,73.3,68.1,29.89,North,360,2.0,6.0,84,0.00,,,0.08,104,HR-IXPWINDi_r2_v1.2.,2013-06-27 18:49:00,
2013-06-27 13:54:00,72.7,66.8,29.92,North,360,8.0,13.0,82,0.00,,,0.08,60,HR-IXPWINDi_r2_v1.2.,2013-06-27 18:54:00,
2013-06-27 14:00:00,72.3,67.1,29.92,North,360,4.0,13.0,84,0.00,,,0.08,60,HR-IXPWINDi_r2_v1.2.,2013-06-27 19:00:00,
2013-06-27 14:05:00,71.4,66.6,29.92,North,360,2.0,10.0,85,0.32,,,0.14,91,HR-IXPWINDi_r2_v1.2.,2013-06-27 19:05:00,
2013-06-27 14:10:00,71.1,67.0,29.91,North,360,6.0,6.0,87,0.13,,,0.15,155,HR-IXPWINDi_r2_v1.2.,2013-06-27 19:10:00,
2013-06-27 14:15:00,71.2,67.1,29.90,North,360,3.0,6.0,87,0.06,,,0.15,155,HR-IXPWINDi_r2_v1.2.,2013-06-27 19:15:00,
2013-06-27 14:20:00,71.8,68.3,29.90,North,360,0.0,6.0,89,0.04,,,0.15,287,HR-IXPWINDi_r2_v1.2.,2013-06-27 19:20:00,
2013-06-27 14:26:00,73.1,69.9,29.90,North,360,0.0,5.0,90,0.00,,,0.15,281,HR-IXPWINDi_r2_v1.2.,2013-06-27 19:26:00,
2013-06-27 14:31:00,72.7,67.9,29.90,North,360,1.0,2.0,85,0.00,,,0.15,295,HR-IXPWINDi_r2_v1.2.,2013-06-27 19:31:00,
2013-06-27 14:36:00,73.2,68.7,29.90,North,360,1.0,3.0,86,0.00,,,0.15,352,HR-IXPWINDi_r2_v1.2.,2013-06-27 19:36:00,
2013-06-27 14:41:00,74.3,68.7,29.90,North,360,2.0,4.0,83,0.00,,,0.15,343,HR-IXPWINDi_r2_v1.2.,2013-06-27 19:41:00,
2013-06-27 14:47:00,74.2,68.3,29.90,North,360,0.0,4.0,82,0.00,,,0.15,299,HR-IXPWINDi_r2_v1.2.,2013-06-27 19:47:00,
2013-06-27 14:52:00,75.8,69.9,29.89,North,360,0.0,4.0,82,0.00,,,0.15,399,HR-IXPWINDi_r2_v1.2.,2013-06-27 19:52:00,
2013-06-27 14:57:00,77.8,70.7,29.89,North,360,0.0,2.0,79,0.00,,,0.15,510,HR-IXPWINDi_r2_v1.2.,2013-06-27 19:57:00,
2013-06-27 15:03:00,79.1,69.6,29.89,North,360,0.0,1.0,73,0.00,,,0.15,591,HR-IXPWINDi_r2_v1.2.,2013-06-27 20:03:00,
2013-06-27 15:08:00,79.8,67.8,29.90,NE,49,3.0,5.0,67,0.00,,,0.15,606,HR-IXPWINDi_r2_v1.2.,2013-06-27 20:08:00,
2013-06-27 15:13:00,79.0,68.7,29.91,North,360,4.0,6.0,71,0.00,,,0.15,401,HR-IXPWINDi_r2_v1.2.,2013-06-27 20:13:00,
2013-06-27 15:18:00,79.5,69.2,29.91,North,360,0.0,6.0,71,0.00,,,0.15,432,HR-IXPWINDi_r2_v1.2.,2013-06-27 20:18:00,
2013-06-27 15:23:00,79.6,69.7,29.91,North,360,0.0,6.0,72,0.00,,,0.15,550,HR-IXPWINDi_r2_v1.2.,2013-06-27 20:23:00,
2013-06-27 15:28:00,79.3,69.4,29.91,North,360,4.0,4.0,72,0.00,,,0.15,504,HR-IXPWINDi_r2_v1.2.,2013-06-27 20:28:00,
2013-06-27 15:34:00,79.6,68.9,29.91,North,360,1.0,4.0,70,0.00,,,0.15,380,HR-IXPWINDi_r2_v1.2.,2013-06-27 20:34:00,
2013-06-27 15:39:00,79.7,69.4,29.91,North,360,1.0,4.0,71,0.00,,,0.15,418,HR-IXPWINDi_r2_v1.2.,2013-06-27 20:39:00,
2013-06-27 15:44:00,79.6,68.5,29.91,North,360,0.0,4.0,69,0.00,,,0.15,503,HR-IXPWINDi_r2_v1.2.,2013-06-27 20:44:00,
2013-06-27 15:49:00,80.1,68.5,29.91,North,360,1.0,4.0,68,0.00,,,0.15,438,HR-IXPWINDi_r2_v1.2.,2013-06-27 20:49:00,
2013-06-27 15:54:00,79.9,67.5,29.91,North,360,0.0,2.0,66,0.00,,,0.15,686,HR-IXPWINDi_r2_v1.2.,2013-06-27 20:54:00,
2013-06-27 16:00:00,80.5,68.9,29.90,North,360,2.0,3.0,68,0.00,,,0.15,918,HR-IXPWINDi_r2_v1.2.,2013-06-27 21:00:00,
2013-06-27 16:05:00,81.1,68.6,29.90,North,360,1.0,3.0,66,0.00,,,0.15,355,HR-IXPWINDi_r2_v1.2.,2013-06-27 21:05:00,
2013-06-27 16:11:00,82.4,66.1,29.90,North,360,2.0,4.0,58,0.00,,,0.15,991,HR-IXPWINDi_r2_v1.2.,2013-06-27 21:11:00,
2013-06-27 16:16:00,82.2,67.8,29.89,North,360,0.0,4.0,62,0.00,,,0.15,480,HR-IXPWINDi_r2_v1.2.,2013-06-27 21:16:00,
2013-06-27 16:21:00,82.6,66.8,29.90,North,360,2.0,4.0,59,0.00,,,0.15,508,HR-IXPWINDi_r2_v1.2.,2013-06-27 21:21:00,
2013-06-27 16:26:00,82.2,67.8,29.90,North,360,0.0,3.0,62,0.00,,,0.15,429,HR-IXPWINDi_r2_v1.2.,2013-06-27 21:26:00,
2013-06-27 16:31:00,83.3,67.9,29.90,NNE,33,3.0,3.0,60,0.00,,,0.15,624,HR-IXPWINDi_r2_v1.2.,2013-06-27 21:31:00,
2013-06-27 16:36:00,84.1,66.1,29.89,North,360,3.0,5.0,55,0.00,,,0.15,633,HR-IXPWINDi_r2_v1.2.,2013-06-27 21:36:00,
2013-06-27 16:41:00,84.7,67.7,29.89,North,360,4.0,5.0,57,0.00,,,0.15,700,HR-IXPWINDi_r2_v1.2.,2013-06-27 21:41:00,
2013-06-27 16:46:00,84.6,66.6,29.89,North,360,2.0,7.0,55,0.00,,,0.15,765,HR-IXPWINDi_r2_v1.2.,2013-06-27 21:46:00,
2013-06-27 16:52:00,85.2,67.2,29.89,North,360,3.0,7.0,55,0.00,,,0.15,731,HR-IXPWINDi_r2_v1.2.,2013-06-27 21:52:00,
2013-06-27 16:57:00,84.8,65.2,29.88,North,360,4.0,5.0,52,0.00,,,0.15,476,HR-IXPWINDi_r2_v1.2.,2013-06-27 21:57:00,
2013-06-27 17:02:00,84.8,66.3,29.88,North,360,1.0,5.0,54,0.00,,,0.15,381,HR-IXPWINDi_r2_v1.2.,2013-06-27 22:02:00,
2013-06-27 17:08:00,84.4,67.5,29.87,North,360,3.0,4.0,57,0.00,,,0.15,462,HR-IXPWINDi_r2_v1.2.,2013-06-27 22:08:00,
2013-06-27 17:13:00,85.9,68.3,29.87,North,360,0.0,3.0,56,0.00,,,0.15,671,HR-IXPWINDi_r2_v1.2.,2013-06-27 22:13:00,
2013-06-27 17:18:00,86.0,68.4,29.87,North,360,1.0,5.0,56,0.00,,,0.15,482,HR-IXPWINDi_r2_v1.2.,2013-06-27 22:18:00,
2013-06-27 17:23:00,86.0,67.9,29.87,North,360,1.0,5.0,55,0.00,,,0.15,482,HR-IXPWINDi_r2_v1.2.,2013-06-27 22:23:00,
2013-06-27 17:28:00,85.8,66.1,29.87,North,360,3.0,5.0,52,0.00,,,0.15,698,HR-IXPWINDi_r2_v1.2.,2013-06-27 22:28:00,
2013-06-27 17:33:00,86.7,66.9,29.87,North,360,2.0,5.0,52,0.00,,,0.15,680,HR-IXPWINDi_r2_v1.2.,2013-06-27 22:33:00,
2013-06-27 17:38:00,86.5,66.7,29.87,North,360,1.0,6.0,52,0.00,,,0.15,587,HR-IXPWINDi_r2_v1.2.,2013-06-27 22:38:00,
2013-06-27 17:44:00,86.6,67.4,29.86,North,360,0.0,6.0,53,0.00,,,0.15,540,HR-IXPWINDi_r2_v1.2.,2013-06-27 22:44:00,
2013-06-27 17:49:00,86.7,67.5,29.87,North,360,1.0,4.0,53,0.00,,,0.15,533,HR-IXPWINDi_r2_v1.2.,2013-06-27 22:49:00,
2013-06-27 17:54:00,86.6,67.9,29.87,North,360,4.0,4.0,54,0.00,,,0.15,501,HR-IXPWINDi_r2_v1.2.,2013-06-27 22:54:00,
2013-06-27 17:59:00,86.6,67.4,29.87,North,360,1.0,4.0,53,0.00,,,0.15,475,HR-IXPWINDi_r2_v1.2.,2013-06-27 22:59:00,
2013-06-27 18:04:00,86.8,67.0,29.87,North,360,0.0,5.0,52,0.00,,,0.15,519,HR-IXPWINDi_r2_v1.2.,2013-06-27 23:04:00,
2013-06-27 18:09:00,87.5,68.2,29.87,North,360,1.0,5.0,53,0.00,,,0.15,308,HR-IXPWINDi_r2_v1.2.,2013-06-27 23:09:00,
2013-06-27 18:14:00,86.7,67.5,29.86,North,360,1.0,4.0,53,0.00,,,0.15,490,HR-IXPWINDi_r2_v1.2.,2013-06-27 23:14:00,
2013-06-27 18:20:00,86.6,67.9,29.87,North,360,1.0,5.0,54,0.00,,,0.15,436,HR-IXPWINDi_r2_v1.2.,2013-06-27 23:20:00,
2013-06-27 18:25:00,86.5,67.8,29.86,North,360,0.0,5.0,54,0.00,,,0.15,399,HR-IXPWINDi_r2_v1.2.,2013-06-27 23:25:00,
2013-06-27 18:30:00,87.0,67.8,29.86,North,360,1.0,5.0,53,0.00,,,0.15,373,HR-IXPWINDi_r2_v1.2.,2013-06-27 23:30:00,
2013-06-27 18:35:00,86.5,66.7,29.87,North,360,1.0,6.0,52,0.00,,,0.15,371,HR-IXPWINDi_r2_v1.2.,2013-06-27 23:35:00,
2013-06-27 18:41:00,86.8,67.0,29.86,North,360,2.0,7.0,52,0.00,,,0.15,378,HR-IXPWINDi_r2_v1.2.,2013-06-27 23:41:00,
2013-06-27 18:46:00,86.4,66.7,29.86,North,360,1.0,8.0,52,0.00,,,0.15,336,HR-IXPWINDi_r2_v1.2.,2013-06-27 23:46:00,
2013-06-27 18:51:00,85.8,67.2,29.86,North,360,0.0,8.0,54,0.00,,,0.15,320,HR-IXPWINDi_r2_v1.2.,2013-06-27 23:51:00,
2013-06-27 18:56:00,85.8,67.2,29.86,North,360,2.0,6.0,54,0.00,,,0.15,308,HR-IXPWINDi_r2_v1.2.,2013-06-27 23:56:00,
2013-06-27 19:01:00,85.4,66.8,29.86,North,360,1.0,5.0,54,0.00,,,0.15,116,HR-IXPWINDi_r2_v1.2.,2013-06-28 00:01:00,
2013-06-27 19:06:00,84.6,68.2,29.86,North,360,3.0,5.0,58,0.00,,,0.15,125,HR-IXPWINDi_r2_v1.2.,2013-06-28 00:06:00,
2013-06-27 19:12:00,84.5,67.6,29.87,North,360,0.0,6.0,57,0.00,,,0.15,135,HR-IXPWINDi_r2_v1.2.,2013-06-28 00:12:00,
2013-06-27 19:17:00,84.2,68.3,29.87,North,360,1.0,6.0,59,0.00,,,0.15,186,HR-IXPWINDi_r2_v1.2.,2013-06-28 00:17:00,
2013-06-27 19:22:00,84.9,68.4,29.86,North,360,1.0,3.0,58,0.00,,,0.15,135,HR-IXPWINDi_r2_v1.2.,2013-06-28 00:22:00,
2013-06-27 19:28:00,84.4,68.5,29.86,North,360,1.0,4.0,59,0.00,,,0.15,183,HR-IXPWINDi_r2_v1.2.,2013-06-28 00:28:00,
2013-06-27 19:33:00,84.5,69.0,29.86,North,360,0.0,4.0,60,0.00,,,0.15,207,HR-IXPWINDi_r2_v1.2.,2013-06-28 00:33:00,
2013-06-27 19:38:00,84.4,69.4,29.87,North,360,0.0,4.0,61,0.00,,,0.15,118,HR-IXPWINDi_r2_v1.2.,2013-06-28 00:38:00,
2013-06-27 19:43:00,84.0,69.5,29.87,North,360,0.0,5.0,62,0.00,,,0.15,116,HR-IXPWINDi_r2_v1.2.,2013-06-28 00:43:00,
2013-06-27 19:48:00,83.8,70.3,29.86,North,360,0.0,5.0,64,0.00,,,0.15,176,HR-IXPWINDi_r2_v1.2.,2013-06-28 00:48:00,
2013-06-27 19:53:00,83.4,69.9,29.85,North,360,0.0,2.0,64,0.00,,,0.15,141,HR-IXPWINDi_r2_v1.2.,2013-06-28 00:53:00,
2013-06-27 19:59:00,83.3,69.8,29.85,North,360,0.0,3.0,64,0.00,,,0.15,109,HR-IXPWINDi_r2_v1.2.,2013-06-28 00:59:00,
2013-06-27 20:04:00,83.2,69.2,29.85,North,360,2.0,3.0,63,0.00,,,0.15,67,HR-IXPWINDi_r2_v1.2.,2013-06-28 01:04:00,
2013-06-27 20:09:00,83.2,69.2,29.85,North,360,2.0,4.0,63,0.00,,,0.15,84,HR-IXPWINDi_r2_v1.2.,2013-06-28 01:09:00,
2013-06-27 20:14:00,83.0,68.6,29.85,North,360,2.0,6.0,62,0.00,,,0.15,70,HR-IXPWINDi_r2_v1.2.,2013-06-28 01:14:00,
2013-06-27 20:20:00,82.6,68.2,29.85,North,360,1.0,6.0,62,0.00,,,0.15,58,HR-IXPWINDi_r2_v1.2.,2013-06-28 01:20:00,
2013-06-27 20:25:00,82.4,68.0,29.85,North,360,1.0,5.0,62,0.00,,,0.15,46,HR-IXPWINDi_r2_v1.2.,2013-06-28 01:25:00,
2013-06-27 20:30:00,82.0,67.6,29.85,North,360,0.0,4.0,62,0.00,,,0.15,39,HR-IXPWINDi_r2_v1.2.,2013-06-28 01:30:00,
2013-06-27 20:35:00,81.5,67.6,29.85,NNE,14,1.0,3.0,63,0.00,,,0.15,32,HR-IXPWINDi_r2_v1.2.,2013-06-28 01:35:00,
2013-06-27 20:40:00,81.4,67.5,29.85,North,360,1.0,4.0,63,0.00,,,0.15,26,HR-IXPWINDi_r2_v1.2.,2013-06-28 01:40:00,
2013-06-27 20:45:00,81.1,67.7,29.85,North,360,0.0,4.0,64,0.00,,,0.15,21,HR-IXPWINDi_r2_v1.2.,2013-06-28 01:45:00,
2013-06-27 20:50:00,80.9,68.0,29.85,North,360,0.0,3.0,65,0.00,,,0.15,14,HR-IXPWINDi_r2_v1.2.,2013-06-28 01:50:00,
2013-06-27 20:56:00,80.5,68.0,29.85,North,360,0.0,3.0,66,0.00,,,0.15,12,HR-IXPWINDi_r2_v1.2.,2013-06-28 01:56:00,
2013-06-27 21:01:00,80.2,67.8,29.85,North,360,1.0,1.0,66,0.00,,,0.15,11,HR-IXPWINDi_r2_v1.2.,2013-06-28 02:01:00,
2013-06-27 21:06:00,79.9,67.9,29.85,North,360,1.0,3.0,67,0.00,,,0.15,9,HR-IXPWINDi_r2_v1.2.,2013-06-28 02:06:00,
2013-06-27 21:11:00,79.6,68.1,29.86,North,360,0.0,3.0,68,0.00,,,0.15,7,HR-IXPWINDi_r2_v1.2.,2013-06-28 02:11:00,
2013-06-27 21:16:00,79.4,68.3,29.86,North,360,0.0,3.0,69,0.00,,,0.15,5,HR-IXPWINDi_r2_v1.2.,2013-06-28 02:16:00,
2013-06-27 21:21:00,79.3,68.2,29.86,North,360,0.0,3.0,69,0.00,,,0.15,0,HR-IXPWINDi_r2_v1.2.,2013-06-28 02:21:00,
2013-06-27 21:26:00,79.1,68.4,29.87,North,360,0.0,1.0,70,0.00,,,0.15,0,HR-IXPWINDi_r2_v1.2.,2013-06-28 02:26:00,
2013-06-27 21:31:00,78.9,68.2,29.87,North,360,0.0,2.0,70,0.00,,,0.15,0,HR-IXPWINDi_r2_v1.2.,2013-06-28 02:31:00,
2013-06-27 21:37:00,78.8,68.1,29.88,North,360,0.0,2.0,70,0.00,,,0.15,0,HR-IXPWINDi_r2_v1.2.,2013-06-28 02:37:00,
2013-06-27 21:42:00,78.7,68.0,29.89,North,360,0.0,1.0,70,0.00,,,0.15,0,HR-IXPWINDi_r2_v1.2.,2013-06-28 02:42:00,
2013-06-27 21:47:00,78.4,67.8,29.89,North,360,0.0,2.0,70,0.00,,,0.15,0,HR-IXPWINDi_r2_v1.2.,2013-06-28 02:47:00,
2013-06-27 21:52:00,78.2,67.6,29.90,North,360,1.0,2.0,70,0.00,,,0.15,0,HR-IXPWINDi_r2_v1.2.,2013-06-28 02:52:00,
2013-06-27 21:57:00,78.2,67.6,29.90,North,360,0.0,2.0,70,0.00,,,0.15,0,HR-IXPWINDi_r2_v1.2.,2013-06-28 02:57:00,
2013-06-27 22:02:00,78.0,67.0,29.90,North,360,1.0,2.0,69,0.00,,,0.15,0,HR-IXPWINDi_r2_v1.2.,2013-06-28 03:02:00,
2013-06-27 22:08:00,78.0,67.0,29.91,North,360,1.0,3.0,69,0.00,,,0.15,0,HR-IXPWINDi_r2_v1.2.,2013-06-28 03:08:00,
2013-06-27 22:13:00,78.1,67.0,29.91,North,360,0.0,4.0,69,0.00,,,0.15,0,HR-IXPWINDi_r2_v1.2.,2013-06-28 03:13:00,
2013-06-27 22:18:00,77.9,67.3,29.90,North,360,3.0,4.0,70,0.00,,,0.15,0,HR-IXPWINDi_r2_v1.2.,2013-06-28 03:18:00,
2013-06-27 22:23:00,77.6,67.4,29.90,North,360,0.0,4.0,71,0.00,,,0.15,0,HR-IXPWINDi_r2_v1.2.,2013-06-28 03:23:00,
2013-06-27 22:28:00,77.5,67.3,29.90,North,360,1.0,4.0,71,0.00,,,0.15,0,HR-IXPWINDi_r2_v1.2.,2013-06-28 03:28:00,
2013-06-27 22:33:00,77.1,66.9,29.90,North,360,0.0,3.0,71,0.00,,,0.15,0,HR-IXPWINDi_r2_v1.2.,2013-06-28 03:33:00,
2013-06-27 22:38:00,76.9,66.3,29.90,North,360,0.0,2.0,70,0.00,,,0.15,0,HR-IXPWINDi_r2_v1.2.,2013-06-28 03:38:00,
2013-06-27 22:43:00,76.7,66.5,29.90,North,360,1.0,3.0,71,0.00,,,0.15,0,HR-IXPWINDi_r2_v1.2.,2013-06-28 03:43:00,
2013-06-27 22:49:00,76.8,66.6,29.90,North,360,1.0,3.0,71,0.00,,,0.15,0,HR-IXPWINDi_r2_v1.2.,2013-06-28 03:49:00,
2013-06-27 22:54:00,76.9,66.3,29.91,North,360,1.0,4.0,70,0.00,,,0.15,0,HR-IXPWINDi_r2_v1.2.,2013-06-28 03:54:00,
2013-06-27 22:59:00,76.7,66.1,29.90,North,360,2.0,4.0,70,0.00,,,0.15,0,HR-IXPWINDi_r2_v1.2.,2013-06-28 03:59:00,
2013-06-27 23:01:00,76.7,66.5,29.90,North,360,1.0,4.0,71,0.00,,,0.15,0,HR-IXPWINDi_r2_v1.2.,2013-06-28 04:01:00,
2013-06-27 23:06:00,76.3,66.1,29.90,North,360,3.0,3.0,71,0.00,,,0.15,0,HR-IXPWINDi_r2_v1.2.,2013-06-28 04:06:00,
2013-06-27 23:11:00,75.8,66.1,29.90,North,360,1.0,4.0,72,0.00,,,0.15,0,HR-IXPWINDi_r2_v1.2.,2013-06-28 04:11:00,
2013-06-27 23:16:00,75.8,65.7,29.90,North,360,2.0,4.0,71,0.00,,,0.15,0,HR-IXPWINDi_r2_v1.2.,2013-06-28 04:16:00,
2013-06-27 23:21:00,75.9,65.8,29.90,North,360,2.0,4.0,71,0.00,,,0.15,0,HR-IXPWINDi_r2_v1.2.,2013-06-28 04:21:00,
2013-06-27 23:27:00,75.6,66.3,29.90,North,360,2.0,4.0,73,0.00,,,0.15,0,HR-IXPWINDi_r2_v1.2.,2013-06-28 04:27:00,
2013-06-27 23:32:00,75.3,66.4,29.90,North,360,2.0,4.0,74,0.00,,,0.15,0,HR-IXPWINDi_r2_v1.2.,2013-06-28 04:32:00,
2013-06-27 23:37:00,74.9,66.0,29.90,North,360,3.0,4.0,74,0.00,,,0.15,0,HR-IXPWINDi_r2_v1.2.,2013-06-28 04:37:00,
2013-06-27 23:42:00,75.0,66.1,29.90,North,360,2.0,4.0,74,0.00,,,0.15,0,HR-IXPWINDi_r2_v1.2.,2013-06-28 04:42:00,
2013-06-27 23:48:00,74.9,65.6,29.90,North,360,4.0,4.0,73,0.00,,,0.15,0,HR-IXPWINDi_r2_v1.2.,2013-06-28 04:48:00,
2013-06-27 23:53:00,74.6,65.7,29.90,North,360,3.0,5.0,74,0.00,,,0.15,0,HR-IXPWINDi_r2_v1.2.,2013-06-28 04:53:00,
2013-06-27 23:58:00,74.7,65.8,29.90,North,360,4.0,5.0,74,0.00,,,0.15,0,HR-IXPWINDi_r2_v1.2.,2013-06-28 04:58:00,